Regional Weather Roundup
Issued by NWS Newport/Morehead, NC

Current Version | Previous Version | Graphics & Text | Print | Product List | Glossary Off
Versions: 1 2 3 4 5 6 7 8 9 10 11 12 13 14 15 16 17 18 19 20 21 22 23 24 25 26 27 28 29 30 31 32 33 34 35 36 37 38 39 40 41 42 43 44 45 46 47 48 49 50
095 ASUS42 KMHX 280325 RWRMHX WEATHER ROUNDUP FOR EASTERN NORTH CAROLINA NATIONAL WEATHER SERVICE NEWPORT/MOREHEAD CITY NC 1100 PM EDT TUE JUN 27 2017 NOTE: "FAIR" INDICATES FEW OR NO CLOUDS BELOW 12,000 FEET WITH NO SIGNIFICANT WEATHER AND/OR OBSTRUCTIONS TO VISIBILITY NCZ015>017-031-032-045>047-102-103-280400- NORTH COAST CITY SKY/WX TMP DP RH WIND PRES REMARKS EDENTON CLEAR 71 61 71 CALM 30.07R ELIZABETH CITY MOCLDY 68 65 90 CALM 30.05R KITTY HAWK MOCLDY 70 65 85 CALM 30.03R MANTEO CLOUDY 70 67 90 NE6 30.05R $$ NCZ045>047-081-094-103-104-280400- CENTRAL COAST CITY SKY/WX TMP DP RH WIND PRES REMARKS FRISCO NOT AVBL $$ NCZ095-097-098-100-101-280400- SOUTHERN COAST CITY SKY/WX TMP DP RH WIND PRES REMARKS BEAUFORT MOCLDY 78 68 71 NW8 30.04R CEDAR ISLAND NOT AVBL JACKSONVILLE MOCLDY 74 68 81 W3 30.04R PINEY ISLAND PTCLDY N/A N/A N/A W5 30.03R WILMINGTON PTCLDY 76 67 73 W6 30.05R $$ NCZ011>013-027>030-043-044-078>080-089-090>093-098-280400- COASTAL PLAIN CITY SKY/WX TMP DP RH WIND PRES REMARKS AHOSKIE N/A 66 55 67 CALM 30.07R CLINTON CLEAR 70 61 72 CALM 30.08R ELIZABETHTOWN NOT AVBL GOLDSBORO CLEAR 73 58 59 N3 30.06R GREENVILLE CLEAR 68 57 68 CALM 30.09R HAVELOCK NOT AVBL KENANSVILLE CLEAR 70 61 73 N5 30.08R KINSTON CLEAR 69 59 70 N3 30.08R NEW BERN CLOUDY 73 65 75 N3 30.07R RICHLANDS CLOUDY 74 65 73 VRB3 30.07R ROCKY MOUNT CLEAR 64 61 90 CALM 30.08R WASHINGTON CLEAR N/A N/A N/A CALM 30.07R WHITEVILLE CLOUDY 72 69 90 CALM 30.06R $$ AMZ130-135-150-152-154-156-158-170-250-252-270-ANZ085-086-088-633-658-670-280400- MARINE OBSERVATIONS STATION/POSITION TIME TEMP WIND PRES WAVE SWELL AIR SEA DIR/SP/G HT/PER HT/PER (UTC) (F) (DEG/KT/KT) (MB) (FT/S) (FT/S) CHESAPEAKE LIGHT NOT AVBL 64 E VA BEACH 0250 72 74 330/ 2/ 2 1017.1 1/ 7 2/ 7 DUCK 0300 73 74 70/ 5/ 6 1016.9 2 E DUCK NOT AVBL OREGON INLET 0300 72 80 20/ 9/ 11 1016.8 13E OREGON INLT 0248 74 N/A 2/ 7 2/ 7 HATTERAS CG 0300 78 80 240/ 6/ 8 1016.7 DIAMOND BUOY 0250 80 82 270/ 10/ 12 1016.5 2/ 6 2/ 6 CAPE LOOKOUT 0300 78 260/ 6/ 7 1016.9 BEAUFORT LAB 0300 78 79 300/ 6/ 9 1016.6 30 SE NEW RVR IN 0308 80 81 280/ 8/ 12 1017.2 30 SE NEW RVR IN 0313 81 N/A 1/ 6 27 SE WRIGHTSVLE 0308 80 81 260/ 6/ 10 1016.6 5 SE WRIGHTSVLE 0308 79 80 290/ 8/ 10 1017.2 225 S CAPE HAT 0250 78 80 CALM / 2 1016.9 3/ 6 3/ 6 41 SE CHARLESTON 0300 80 81 90/ 4/ 6 1017.0 $$

USA.gov is the U.S. government's official web portal to all federal, state and local government web resources and services.